Year,Month,Day,Hour,Minute,Value (Times are PST for temperature in C)
2011,05,14,00,00,10.10
2011,05,14,00,01,10.10
2011,05,14,00,02,10.10
2011,05,14,00,03,10.10
2011,05,14,00,04,10.10
2011,05,14,00,05,10.10
2011,05,14,00,06,10.10
2011,05,14,00,07,10.10
2011,05,14,00,08,10.10
2011,05,14,00,09,10.10
2011,05,14,00,10,10.10
2011,05,14,00,11,10.10
2011,05,14,00,12,10.10
2011,05,14,00,13,10.10
2011,05,14,00,14,10.10
2011,05,14,00,15,10.10
2011,05,14,00,16,10.10
2011,05,14,00,17,10.00
2011,05,14,00,18,10.00
2011,05,14,00,19,10.00
2011,05,14,00,20,10.00
2011,05,14,00,21,10.00
2011,05,14,00,22,10.00
2011,05,14,00,23,10.00
2011,05,14,00,24,10.00
2011,05,14,00,25,9.90
2011,05,14,00,26,9.90
2011,05,14,00,27,9.90
2011,05,14,00,28,9.90
2011,05,14,00,29,9.90
2011,05,14,00,30,9.90
2011,05,14,00,31,9.90
2011,05,14,00,32,9.90
2011,05,14,00,33,9.90
2011,05,14,00,34,9.90
2011,05,14,00,35,9.80
2011,05,14,00,36,9.80
2011,05,14,00,37,9.80
2011,05,14,00,38,9.80
2011,05,14,00,39,9.80
2011,05,14,00,40,9.80
2011,05,14,00,41,9.80
2011,05,14,00,42,9.80
2011,05,14,00,43,9.80
2011,05,14,00,44,9.80
2011,05,14,00,45,9.80
2011,05,14,00,46,9.80
2011,05,14,00,47,9.80
2011,05,14,00,48,9.80
2011,05,14,00,49,9.80
2011,05,14,00,50,9.80
2011,05,14,00,51,9.80
2011,05,14,00,52,9.80
2011,05,14,00,53,9.80
2011,05,14,00,54,9.80
2011,05,14,00,55,9.80
2011,05,14,00,56,9.80
2011,05,14,00,57,9.80
2011,05,14,00,58,9.80
2011,05,14,00,59,9.80
2011,05,14,01,00,9.80
2011,05,14,01,01,9.80
2011,05,14,01,02,9.80
2011,05,14,01,03,9.80
2011,05,14,01,04,9.80
2011,05,14,01,05,9.80
2011,05,14,01,06,9.70
2011,05,14,01,07,9.70
2011,05,14,01,08,9.70
2011,05,14,01,09,9.70
2011,05,14,01,10,9.70
2011,05,14,01,11,9.70
2011,05,14,01,12,9.70
2011,05,14,01,13,9.70
2011,05,14,01,14,9.70
2011,05,14,01,15,9.70
2011,05,14,01,16,9.60
2011,05,14,01,17,9.60
2011,05,14,01,18,9.60
2011,05,14,01,19,9.60
2011,05,14,01,20,9.60
2011,05,14,01,21,9.60
2011,05,14,01,22,9.60
2011,05,14,01,23,9.60
2011,05,14,01,24,9.60
2011,05,14,01,25,9.60
2011,05,14,01,26,9.60
2011,05,14,01,27,9.60
2011,05,14,01,28,9.60
2011,05,14,01,29,9.60
2011,05,14,01,30,9.60
2011,05,14,01,31,9.60
2011,05,14,01,32,9.60
2011,05,14,01,33,9.60
2011,05,14,01,34,9.60
2011,05,14,01,35,9.60
2011,05,14,01,36,9.60
2011,05,14,01,37,9.60
2011,05,14,01,38,9.60
2011,05,14,01,39,9.60
2011,05,14,01,40,9.60
2011,05,14,01,41,9.60
2011,05,14,01,42,9.60
2011,05,14,01,43,9.50
2011,05,14,01,44,9.50
2011,05,14,01,45,9.50
2011,05,14,01,46,9.50
2011,05,14,01,47,9.50
2011,05,14,01,48,9.50
2011,05,14,01,49,9.50
2011,05,14,01,50,9.40
2011,05,14,01,51,9.40
2011,05,14,01,52,9.40
2011,05,14,01,53,9.40
2011,05,14,01,54,9.40
2011,05,14,01,55,9.40
2011,05,14,01,56,9.40
2011,05,14,01,57,9.40
2011,05,14,01,58,9.30
2011,05,14,01,59,9.30
2011,05,14,02,00,9.30
2011,05,14,02,01,9.30
2011,05,14,02,02,9.30
2011,05,14,02,03,9.30
2011,05,14,02,04,9.30
2011,05,14,02,05,9.30
2011,05,14,02,06,9.30
2011,05,14,02,07,9.30
2011,05,14,02,08,9.20
2011,05,14,02,09,9.20
2011,05,14,02,10,9.20
2011,05,14,02,11,9.20
2011,05,14,02,12,9.20
2011,05,14,02,13,9.20
2011,05,14,02,14,9.20
2011,05,14,02,15,9.20
2011,05,14,02,16,9.20
2011,05,14,02,17,9.20
2011,05,14,02,18,9.20
2011,05,14,02,19,9.10
2011,05,14,02,20,9.10
2011,05,14,02,21,9.10
2011,05,14,02,22,9.10
2011,05,14,02,23,9.10
2011,05,14,02,24,9.10
2011,05,14,02,25,9.10
2011,05,14,02,26,9.10
2011,05,14,02,27,9.10
2011,05,14,02,28,9.10
2011,05,14,02,29,9.10
2011,05,14,02,30,9.10
2011,05,14,02,31,9.10
2011,05,14,02,32,9.10
2011,05,14,02,33,9.10
2011,05,14,02,34,9.00
2011,05,14,02,35,9.00
2011,05,14,02,36,9.00
2011,05,14,02,37,9.00
2011,05,14,02,38,9.00
2011,05,14,02,39,9.00
2011,05,14,02,40,9.00
2011,05,14,02,41,9.00
2011,05,14,02,42,9.00
2011,05,14,02,43,9.00
2011,05,14,02,44,9.00
2011,05,14,02,45,9.00
2011,05,14,02,46,8.90
2011,05,14,02,47,8.90
2011,05,14,02,48,8.90
2011,05,14,02,49,8.90
2011,05,14,02,50,8.90
2011,05,14,02,51,8.80
2011,05,14,02,52,8.80
2011,05,14,02,53,8.80
2011,05,14,02,54,8.80
2011,05,14,02,55,8.80
2011,05,14,02,56,8.70
2011,05,14,02,57,8.70
2011,05,14,02,58,8.70
2011,05,14,02,59,8.70
2011,05,14,03,00,8.70
2011,05,14,03,01,8.70
2011,05,14,03,02,8.70
2011,05,14,03,03,8.70
2011,05,14,03,06,8.70
2011,05,14,03,07,8.70
2011,05,14,03,08,8.70
2011,05,14,03,09,8.70
2011,05,14,03,10,8.70
2011,05,14,03,11,8.70
2011,05,14,03,12,8.70
2011,05,14,03,13,8.70
2011,05,14,03,14,8.70
2011,05,14,03,15,8.70
2011,05,14,03,16,8.70
2011,05,14,03,17,8.70
2011,05,14,03,18,8.70
2011,05,14,03,19,8.70
2011,05,14,03,20,8.70
2011,05,14,03,21,8.70
2011,05,14,03,22,8.70
2011,05,14,03,23,8.70
2011,05,14,03,24,8.70
2011,05,14,03,25,8.70
2011,05,14,03,26,8.70
2011,05,14,03,27,8.70
2011,05,14,03,28,8.70
2011,05,14,03,29,8.70
2011,05,14,03,30,8.70
2011,05,14,03,31,8.70
2011,05,14,03,32,8.70
2011,05,14,03,33,8.70
2011,05,14,03,34,8.70
2011,05,14,03,35,8.70
2011,05,14,03,36,8.70
2011,05,14,03,37,8.70
2011,05,14,03,38,8.70
2011,05,14,03,39,8.70
2011,05,14,03,40,8.70
2011,05,14,03,41,8.70
2011,05,14,03,42,8.80
2011,05,14,03,43,8.80
2011,05,14,03,44,8.80
2011,05,14,03,45,8.80
2011,05,14,03,46,8.80
2011,05,14,03,47,8.70
2011,05,14,03,48,8.70
2011,05,14,03,49,8.70
2011,05,14,03,50,8.70
2011,05,14,03,51,8.70
2011,05,14,03,52,8.70
2011,05,14,03,53,8.70
2011,05,14,03,54,8.70
2011,05,14,03,55,8.70
2011,05,14,03,56,8.70
2011,05,14,03,57,8.70
2011,05,14,03,58,8.70
2011,05,14,03,59,8.60
2011,05,14,04,00,8.60
2011,05,14,04,01,8.60
2011,05,14,04,02,8.60
2011,05,14,04,03,8.60
2011,05,14,04,04,8.70
2011,05,14,04,05,8.70
2011,05,14,04,06,8.60
2011,05,14,04,07,8.60
2011,05,14,04,08,8.60
2011,05,14,04,09,8.60
2011,05,14,04,10,8.60
2011,05,14,04,11,8.60
2011,05,14,04,12,8.60
2011,05,14,04,13,8.60
2011,05,14,04,14,8.70
2011,05,14,04,15,8.70
2011,05,14,04,16,8.70
2011,05,14,04,17,8.70
2011,05,14,04,18,8.70
2011,05,14,04,19,8.70
2011,05,14,04,20,8.70
2011,05,14,04,21,8.70
2011,05,14,04,22,8.70
2011,05,14,04,23,8.70
2011,05,14,04,24,8.70
2011,05,14,04,25,8.70
2011,05,14,04,26,8.70
2011,05,14,04,27,8.70
2011,05,14,04,28,8.70
2011,05,14,04,29,8.70
2011,05,14,04,30,8.70
2011,05,14,04,31,8.70
2011,05,14,04,32,8.70
2011,05,14,04,33,8.70
2011,05,14,04,34,8.70
2011,05,14,04,35,8.70
2011,05,14,04,36,8.70
2011,05,14,04,37,8.70
2011,05,14,04,38,8.70
2011,05,14,04,39,8.60
2011,05,14,04,40,8.60
2011,05,14,04,41,8.60
2011,05,14,04,42,8.60
2011,05,14,04,43,8.60
2011,05,14,04,44,8.60
2011,05,14,04,45,8.60
2011,05,14,04,46,8.60
2011,05,14,04,47,8.60
2011,05,14,04,48,8.60
2011,05,14,04,49,8.60
2011,05,14,04,50,8.60
2011,05,14,04,51,8.60
2011,05,14,04,52,8.60
2011,05,14,04,53,8.60
2011,05,14,04,54,8.50
2011,05,14,04,55,8.50
2011,05,14,04,56,8.50
2011,05,14,04,57,8.50
2011,05,14,04,58,8.60
2011,05,14,04,59,8.50
2011,05,14,05,00,8.60
2011,05,14,05,01,8.60
2011,05,14,05,02,8.60
2011,05,14,05,03,8.60
2011,05,14,05,04,8.60
2011,05,14,05,05,8.50
2011,05,14,05,06,8.50
2011,05,14,05,07,8.50
2011,05,14,05,08,8.40
2011,05,14,05,09,8.40
2011,05,14,05,10,8.40
2011,05,14,05,11,8.40
2011,05,14,05,12,8.40
2011,05,14,05,13,8.30
2011,05,14,05,14,8.30
2011,05,14,05,15,8.30
2011,05,14,05,16,8.30
2011,05,14,05,17,8.20
2011,05,14,05,18,8.20
2011,05,14,05,19,8.10
2011,05,14,05,20,8.10
2011,05,14,05,21,8.10
2011,05,14,05,22,8.00
2011,05,14,05,23,8.00
2011,05,14,05,24,8.00
2011,05,14,05,25,7.90
2011,05,14,05,26,7.90
2011,05,14,05,27,7.90
2011,05,14,05,28,7.90
2011,05,14,05,29,7.90
2011,05,14,05,30,7.90
2011,05,14,05,31,7.90
2011,05,14,05,32,7.80
2011,05,14,05,33,7.90
2011,05,14,05,34,7.90
2011,05,14,05,35,7.90
2011,05,14,05,36,7.90
2011,05,14,05,37,7.90
2011,05,14,05,38,7.90
2011,05,14,05,39,7.90
2011,05,14,05,40,7.90
2011,05,14,05,41,7.90
2011,05,14,05,42,7.90
2011,05,14,05,43,7.90
2011,05,14,05,44,7.90
2011,05,14,05,45,7.90
2011,05,14,05,46,7.90
2011,05,14,05,47,7.90
2011,05,14,05,48,7.90
2011,05,14,05,49,7.90
2011,05,14,05,50,7.90
2011,05,14,05,51,7.90
2011,05,14,05,52,7.90
2011,05,14,05,53,7.90
2011,05,14,05,54,7.90
2011,05,14,05,55,7.90
2011,05,14,05,56,7.90
2011,05,14,05,57,7.90
2011,05,14,05,58,7.90
2011,05,14,05,59,8.00
2011,05,14,06,00,8.00
2011,05,14,06,01,8.00
2011,05,14,06,02,8.00
2011,05,14,06,03,8.10
2011,05,14,06,04,8.10
2011,05,14,06,05,8.10
2011,05,14,06,06,8.00
2011,05,14,06,07,8.00
2011,05,14,06,08,8.00
2011,05,14,06,09,8.00
2011,05,14,06,10,7.90
2011,05,14,06,11,7.90
2011,05,14,06,12,7.90
2011,05,14,06,13,7.90
2011,05,14,06,14,7.90
2011,05,14,06,15,7.90
2011,05,14,06,16,7.90
2011,05,14,06,17,7.80
2011,05,14,06,18,7.80
2011,05,14,06,19,7.80
2011,05,14,06,20,7.80
2011,05,14,06,21,7.80
2011,05,14,06,22,7.80
2011,05,14,06,23,7.70
2011,05,14,06,24,7.70
2011,05,14,06,25,7.70
2011,05,14,06,26,7.70
2011,05,14,06,27,7.70
2011,05,14,06,28,7.70
2011,05,14,06,29,7.70
2011,05,14,06,30,7.60
2011,05,14,06,31,7.60
2011,05,14,06,32,7.60
2011,05,14,06,33,7.60
2011,05,14,06,34,7.60
2011,05,14,06,35,7.60
2011,05,14,06,36,7.60
2011,05,14,06,37,7.60
2011,05,14,06,38,7.60
2011,05,14,06,39,7.70
2011,05,14,06,40,7.70
2011,05,14,06,41,7.70
2011,05,14,06,42,7.70
2011,05,14,06,43,7.70
2011,05,14,06,44,7.70
2011,05,14,06,45,7.70
2011,05,14,06,46,7.70
2011,05,14,06,47,7.70
2011,05,14,06,48,7.70
2011,05,14,06,49,7.70
2011,05,14,06,50,7.70
2011,05,14,06,51,7.60
2011,05,14,06,52,7.60
2011,05,14,06,53,7.60
2011,05,14,06,54,7.60
2011,05,14,06,55,7.60
2011,05,14,06,56,7.60
2011,05,14,06,57,7.60
2011,05,14,06,58,7.60
2011,05,14,06,59,7.60
2011,05,14,07,00,7.60
2011,05,14,07,01,7.60
2011,05,14,07,02,7.60
2011,05,14,07,03,7.60
2011,05,14,07,04,7.70
2011,05,14,07,05,7.70
2011,05,14,07,06,7.70
2011,05,14,07,07,7.70
2011,05,14,07,08,7.70
2011,05,14,07,09,7.70
2011,05,14,07,10,7.70
2011,05,14,07,11,7.70
2011,05,14,07,12,7.70
2011,05,14,07,13,7.70
2011,05,14,07,14,7.70
2011,05,14,07,15,7.70
2011,05,14,07,16,7.70
2011,05,14,07,17,7.70
2011,05,14,07,18,7.70
2011,05,14,07,19,7.70
2011,05,14,07,20,7.70
2011,05,14,07,21,7.70
2011,05,14,07,22,7.70
2011,05,14,07,23,7.70
2011,05,14,07,24,7.70
2011,05,14,07,25,7.70
2011,05,14,07,26,7.70
2011,05,14,07,27,7.70
2011,05,14,07,28,7.70
2011,05,14,07,29,7.70
2011,05,14,07,30,7.70
2011,05,14,07,31,7.70
2011,05,14,07,32,7.70
2011,05,14,07,33,7.70
2011,05,14,07,34,7.70
2011,05,14,07,35,7.70
2011,05,14,07,36,7.70
2011,05,14,07,37,7.70
2011,05,14,07,38,7.70
2011,05,14,07,39,7.70
2011,05,14,07,40,7.70
2011,05,14,07,41,7.70
2011,05,14,07,42,7.70
2011,05,14,07,43,7.60
2011,05,14,07,44,7.70
2011,05,14,07,45,7.60
2011,05,14,07,46,7.70
2011,05,14,07,47,7.70
2011,05,14,07,48,7.70
2011,05,14,07,49,7.70
2011,05,14,07,50,7.70
2011,05,14,07,51,7.70
2011,05,14,07,52,7.70
2011,05,14,07,53,7.70
2011,05,14,07,54,7.70
2011,05,14,07,55,7.70
2011,05,14,07,56,7.70
2011,05,14,07,57,7.70
2011,05,14,07,58,7.70
2011,05,14,07,59,7.80
2011,05,14,08,00,7.80
2011,05,14,08,01,7.80
2011,05,14,08,02,7.80
2011,05,14,08,03,7.80
2011,05,14,08,04,7.90
2011,05,14,08,05,7.90
2011,05,14,08,06,7.90
2011,05,14,08,07,8.00
2011,05,14,08,08,8.00
2011,05,14,08,09,8.00
2011,05,14,08,10,8.00
2011,05,14,08,11,8.00
2011,05,14,08,12,8.20
2011,05,14,08,13,8.20
2011,05,14,08,14,8.20
2011,05,14,08,15,8.20
2011,05,14,08,16,8.30
2011,05,14,08,17,8.30
2011,05,14,08,18,8.30
2011,05,14,08,19,8.30
2011,05,14,08,20,8.30
2011,05,14,08,21,8.30
2011,05,14,08,22,8.30
2011,05,14,08,23,8.30
2011,05,14,08,24,8.30
2011,05,14,08,25,8.30
2011,05,14,08,26,8.30
2011,05,14,08,27,8.40
2011,05,14,08,28,8.40
2011,05,14,08,29,8.40
2011,05,14,08,30,8.40
2011,05,14,08,31,8.40
2011,05,14,08,32,8.40
2011,05,14,08,33,8.40
2011,05,14,08,34,8.40
2011,05,14,08,35,8.40
2011,05,14,08,36,8.40
2011,05,14,08,37,8.50
2011,05,14,08,38,8.50
2011,05,14,08,39,8.50
2011,05,14,08,40,8.50
2011,05,14,08,41,8.60
2011,05,14,08,42,8.60
2011,05,14,08,43,8.60
2011,05,14,08,44,8.70
2011,05,14,08,45,8.70
2011,05,14,08,46,8.70
2011,05,14,08,47,8.70
2011,05,14,08,48,8.70
2011,05,14,08,49,8.70
2011,05,14,08,50,8.80
2011,05,14,08,51,8.80
2011,05,14,08,52,8.80
2011,05,14,08,53,8.80
2011,05,14,08,54,8.80
2011,05,14,08,55,8.80
2011,05,14,08,56,8.80
2011,05,14,08,57,8.80
2011,05,14,08,58,8.80
2011,05,14,08,59,8.80
2011,05,14,09,00,8.80
2011,05,14,09,01,8.80
2011,05,14,09,02,8.80
2011,05,14,09,03,8.80
2011,05,14,09,04,8.80
2011,05,14,09,05,8.80
2011,05,14,09,06,8.80
2011,05,14,09,07,8.70
2011,05,14,09,08,8.70
2011,05,14,09,09,8.70
2011,05,14,09,10,8.70
2011,05,14,09,11,8.70
2011,05,14,09,12,8.70
2011,05,14,09,13,8.70
2011,05,14,09,14,8.70
2011,05,14,09,15,8.70
2011,05,14,09,16,8.70
2011,05,14,09,17,8.80
2011,05,14,09,18,8.70
2011,05,14,09,19,8.70
2011,05,14,09,20,8.70
2011,05,14,09,21,8.70
2011,05,14,09,22,8.70
2011,05,14,09,23,8.70
2011,05,14,09,24,8.70
2011,05,14,09,25,8.70
2011,05,14,09,26,8.70
2011,05,14,09,27,8.70
2011,05,14,09,28,8.70
2011,05,14,09,29,8.60
2011,05,14,09,30,8.70
2011,05,14,09,31,8.70
2011,05,14,09,32,8.70
2011,05,14,09,33,8.70
2011,05,14,09,34,8.70
2011,05,14,09,35,8.70
2011,05,14,09,36,8.70
2011,05,14,09,37,8.70
2011,05,14,09,38,8.70
2011,05,14,09,39,8.80
2011,05,14,09,40,8.80
2011,05,14,09,41,8.80
2011,05,14,09,42,8.80
2011,05,14,09,43,8.80
2011,05,14,09,44,8.90
2011,05,14,09,45,8.90
2011,05,14,09,46,8.90
2011,05,14,09,47,8.90
2011,05,14,09,48,8.90
2011,05,14,09,49,8.90
2011,05,14,09,50,8.90
2011,05,14,09,51,8.90
2011,05,14,09,52,8.90
2011,05,14,09,53,8.90
2011,05,14,09,54,8.90
2011,05,14,09,55,9.00
2011,05,14,09,56,9.00
2011,05,14,09,57,9.00
2011,05,14,09,58,9.00
2011,05,14,09,59,8.90
2011,05,14,10,00,8.90
2011,05,14,10,01,9.00
2011,05,14,10,02,9.00
2011,05,14,10,03,9.00
2011,05,14,10,04,9.00
2011,05,14,10,05,9.00
2011,05,14,10,06,9.00
2011,05,14,10,07,9.00
2011,05,14,10,08,9.10
2011,05,14,10,09,9.10
2011,05,14,10,10,9.10
2011,05,14,10,11,9.10
2011,05,14,10,12,9.10
2011,05,14,10,13,9.10
2011,05,14,10,14,9.10
2011,05,14,10,15,9.10
2011,05,14,10,16,9.20
2011,05,14,10,17,9.20
2011,05,14,10,18,9.20
2011,05,14,10,19,9.20
2011,05,14,10,20,9.20
2011,05,14,10,21,9.20
2011,05,14,10,22,9.10
2011,05,14,10,23,9.10
2011,05,14,10,24,9.10
2011,05,14,10,25,9.10
2011,05,14,10,26,9.10
2011,05,14,10,27,9.10
2011,05,14,10,28,9.10
2011,05,14,10,29,9.10
2011,05,14,10,30,9.10
2011,05,14,10,31,9.10
2011,05,14,10,32,9.10
2011,05,14,10,33,9.10
2011,05,14,10,34,9.20
2011,05,14,10,35,9.20
2011,05,14,10,36,9.20
2011,05,14,10,37,9.20
2011,05,14,10,38,9.30
2011,05,14,10,39,9.30
2011,05,14,10,40,9.30
2011,05,14,10,41,9.30
2011,05,14,10,42,9.30
2011,05,14,10,43,9.40
2011,05,14,10,44,9.40
2011,05,14,10,45,9.50
2011,05,14,10,46,9.60
2011,05,14,10,47,9.60
2011,05,14,10,48,9.60
2011,05,14,10,49,9.70
2011,05,14,10,50,9.70
2011,05,14,10,51,9.70
2011,05,14,10,52,9.70
2011,05,14,10,53,9.80
2011,05,14,10,54,9.80
2011,05,14,10,55,9.80
2011,05,14,10,56,9.80
2011,05,14,10,57,9.90
2011,05,14,10,58,9.90
2011,05,14,10,59,9.90
2011,05,14,11,00,9.90
2011,05,14,11,01,9.90
2011,05,14,11,02,9.90
2011,05,14,11,03,9.90
2011,05,14,11,04,10.00
2011,05,14,11,05,10.00
2011,05,14,11,06,10.00
2011,05,14,11,07,10.00
2011,05,14,11,08,10.10
2011,05,14,11,09,10.10
2011,05,14,11,10,10.10
2011,05,14,11,11,10.10
2011,05,14,11,12,10.10
2011,05,14,11,13,10.10
2011,05,14,11,14,10.10
2011,05,14,11,15,10.00
2011,05,14,11,16,10.00
2011,05,14,11,17,10.00
2011,05,14,11,18,10.00
2011,05,14,11,19,10.00
2011,05,14,11,20,10.00
2011,05,14,11,21,10.00
2011,05,14,11,22,10.00
2011,05,14,11,23,10.00
2011,05,14,11,24,10.10
2011,05,14,11,25,10.10
2011,05,14,11,26,10.10
2011,05,14,11,27,10.10
2011,05,14,11,28,10.00
2011,05,14,11,29,10.00
2011,05,14,11,30,10.00
2011,05,14,11,31,9.90
2011,05,14,11,32,10.00
2011,05,14,11,33,10.00
2011,05,14,11,34,10.10
2011,05,14,11,35,10.10
2011,05,14,11,36,10.20
2011,05,14,11,37,10.20
2011,05,14,11,38,10.20
2011,05,14,11,39,10.30
2011,05,14,11,40,10.30
2011,05,14,11,41,10.30
2011,05,14,11,42,10.30
2011,05,14,11,43,10.30
2011,05,14,11,44,10.40
2011,05,14,11,45,10.40
2011,05,14,11,46,10.40
2011,05,14,11,47,10.50
2011,05,14,11,48,10.50
2011,05,14,11,49,10.60
2011,05,14,11,50,10.60
2011,05,14,11,51,10.70
2011,05,14,11,52,10.80
2011,05,14,11,53,10.80
2011,05,14,11,54,10.90
2011,05,14,11,55,11.00
2011,05,14,11,56,11.00
2011,05,14,11,57,10.90
2011,05,14,11,58,10.90
2011,05,14,11,59,10.90
2011,05,14,12,00,10.90
2011,05,14,12,01,10.90
2011,05,14,12,02,11.00
2011,05,14,12,03,11.10
2011,05,14,12,04,11.10
2011,05,14,12,05,11.10
2011,05,14,12,06,11.20
2011,05,14,12,07,11.20
2011,05,14,12,08,11.20
2011,05,14,12,09,11.30
2011,05,14,12,10,11.30
2011,05,14,12,11,11.30
2011,05,14,12,12,11.20
2011,05,14,12,13,11.20
2011,05,14,12,14,11.20
2011,05,14,12,15,11.20
2011,05,14,12,16,11.20
2011,05,14,12,17,11.10
2011,05,14,12,18,11.10
2011,05,14,12,19,11.10
2011,05,14,12,20,11.10
2011,05,14,12,21,11.10
2011,05,14,12,22,11.10
2011,05,14,12,23,11.10
2011,05,14,12,24,11.10
2011,05,14,12,25,11.10
2011,05,14,12,26,11.10
2011,05,14,12,27,11.10
2011,05,14,12,28,11.20
2011,05,14,12,29,11.30
2011,05,14,12,30,11.40
2011,05,14,12,31,11.40
2011,05,14,12,32,11.50
2011,05,14,12,33,11.60
2011,05,14,12,34,11.60
2011,05,14,12,35,11.60
2011,05,14,12,36,11.60
2011,05,14,12,37,11.60
2011,05,14,12,38,11.70
2011,05,14,12,39,11.70
2011,05,14,12,40,11.70
2011,05,14,12,41,11.80
2011,05,14,12,42,11.80
2011,05,14,12,43,11.90
2011,05,14,12,44,11.90
2011,05,14,12,45,11.90
2011,05,14,12,46,11.90
2011,05,14,12,47,11.90
2011,05,14,12,48,11.90
2011,05,14,12,49,11.80
2011,05,14,12,50,11.80
2011,05,14,12,51,11.80
2011,05,14,12,52,11.90
2011,05,14,12,53,11.90
2011,05,14,12,54,11.90
2011,05,14,12,55,12.00
2011,05,14,12,56,12.00
2011,05,14,12,57,12.10
2011,05,14,12,58,12.10
2011,05,14,12,59,12.00
2011,05,14,13,00,12.00
2011,05,14,13,01,12.00
2011,05,14,13,02,12.00
2011,05,14,13,03,12.00
2011,05,14,13,04,12.10
2011,05,14,13,05,12.10
2011,05,14,13,06,12.10
2011,05,14,13,07,12.10
2011,05,14,13,08,12.10
2011,05,14,13,09,12.10
2011,05,14,13,10,12.20
2011,05,14,13,11,12.20
2011,05,14,13,12,12.30
2011,05,14,13,13,12.30
2011,05,14,13,14,12.30
2011,05,14,13,15,12.40
2011,05,14,13,16,12.50
2011,05,14,13,17,12.50
2011,05,14,13,18,12.60
2011,05,14,13,19,12.60
2011,05,14,13,20,12.60
2011,05,14,13,21,12.60
2011,05,14,13,22,12.70
2011,05,14,13,23,12.70
2011,05,14,13,24,12.80
2011,05,14,13,25,12.80
2011,05,14,13,26,12.90
2011,05,14,13,27,13.00
2011,05,14,13,28,13.00
2011,05,14,13,29,12.90
2011,05,14,13,30,12.90
2011,05,14,13,31,12.80
2011,05,14,13,32,12.80
2011,05,14,13,33,12.80
2011,05,14,13,34,12.80
2011,05,14,13,35,12.80
2011,05,14,13,36,12.90
2011,05,14,13,37,12.90
2011,05,14,13,38,13.00
2011,05,14,13,39,13.10
2011,05,14,13,40,13.10
2011,05,14,13,41,13.00
2011,05,14,13,42,13.00
2011,05,14,13,43,13.00
2011,05,14,13,44,12.90
2011,05,14,13,45,12.90
2011,05,14,13,46,12.90
2011,05,14,13,47,13.00
2011,05,14,13,48,13.00
2011,05,14,13,49,13.10
2011,05,14,13,50,13.10
2011,05,14,13,51,13.10
2011,05,14,13,52,13.20
2011,05,14,13,53,13.20
2011,05,14,13,54,13.20
2011,05,14,13,55,13.30
2011,05,14,13,56,13.30
2011,05,14,13,57,13.30
2011,05,14,13,58,13.30
2011,05,14,13,59,13.30
2011,05,14,14,00,13.30
2011,05,14,14,01,13.30
2011,05,14,14,02,13.30
2011,05,14,14,03,13.30
2011,05,14,14,04,13.40
2011,05,14,14,05,13.40
2011,05,14,14,06,13.40
2011,05,14,14,07,13.40
2011,05,14,14,08,13.40
2011,05,14,14,09,13.40
2011,05,14,14,10,13.50
2011,05,14,14,11,13.50
2011,05,14,14,12,13.60
2011,05,14,14,13,13.60
2011,05,14,14,14,13.60
2011,05,14,14,15,13.60
2011,05,14,14,16,13.60
2011,05,14,14,17,13.60
2011,05,14,14,18,13.60
2011,05,14,14,19,13.50
2011,05,14,14,20,13.50
2011,05,14,14,21,13.50
2011,05,14,14,22,13.50
2011,05,14,14,23,13.60
2011,05,14,14,24,13.60
2011,05,14,14,25,13.60
2011,05,14,14,26,13.70
2011,05,14,14,27,13.70
2011,05,14,14,28,13.70
2011,05,14,14,29,13.70
2011,05,14,14,30,13.70
2011,05,14,14,31,13.70
2011,05,14,14,32,13.80
2011,05,14,14,33,13.80
2011,05,14,14,34,13.80
2011,05,14,14,35,13.80
2011,05,14,14,36,13.90
2011,05,14,14,37,13.90
2011,05,14,14,38,13.90
2011,05,14,14,39,13.90
2011,05,14,14,40,13.90
2011,05,14,14,41,13.90
2011,05,14,14,42,13.90
2011,05,14,14,43,13.90
2011,05,14,14,44,13.90
2011,05,14,14,45,13.90
2011,05,14,14,46,14.00
2011,05,14,14,47,14.00
2011,05,14,14,48,14.00
2011,05,14,14,49,14.00
2011,05,14,14,50,14.10
2011,05,14,14,51,14.10
2011,05,14,14,52,14.10
2011,05,14,14,53,14.10
2011,05,14,14,54,14.10
2011,05,14,14,55,14.10
2011,05,14,14,56,14.20
2011,05,14,14,57,14.20
2011,05,14,14,58,14.20
2011,05,14,14,59,14.20
2011,05,14,15,00,14.20
2011,05,14,15,01,14.20
2011,05,14,15,02,14.30
2011,05,14,15,03,14.30
2011,05,14,15,04,14.30
2011,05,14,15,05,14.40
2011,05,14,15,06,14.40
2011,05,14,15,07,14.40
2011,05,14,15,08,14.40
2011,05,14,15,09,14.40
2011,05,14,15,10,14.40
2011,05,14,15,11,14.40
2011,05,14,15,12,14.30
2011,05,14,15,13,14.30
2011,05,14,15,14,14.30
2011,05,14,15,15,14.40
2011,05,14,15,16,14.50
2011,05,14,15,17,14.60
2011,05,14,15,18,14.60
2011,05,14,15,19,14.60
2011,05,14,15,20,14.70
2011,05,14,15,21,14.70
2011,05,14,15,22,14.70
2011,05,14,15,23,14.70
2011,05,14,15,24,14.70
2011,05,14,15,25,14.80
2011,05,14,15,26,14.80
2011,05,14,15,27,14.90
2011,05,14,15,28,14.90
2011,05,14,15,29,14.90
2011,05,14,15,30,14.90
2011,05,14,15,31,14.90
2011,05,14,15,32,14.90
2011,05,14,15,33,14.90
2011,05,14,15,34,14.90
2011,05,14,15,35,14.90
2011,05,14,15,36,14.90
2011,05,14,15,37,14.90
2011,05,14,15,38,15.00
2011,05,14,15,39,15.00
2011,05,14,15,40,15.00
2011,05,14,15,41,15.10
2011,05,14,15,42,15.10
2011,05,14,15,43,15.10
2011,05,14,15,44,15.10
2011,05,14,15,45,15.00
2011,05,14,15,46,15.00
2011,05,14,15,47,15.00
2011,05,14,15,48,15.00
2011,05,14,15,49,15.00
2011,05,14,15,50,15.10
2011,05,14,15,51,15.10
2011,05,14,15,52,15.10
2011,05,14,15,53,15.10
2011,05,14,15,54,15.10
2011,05,14,15,55,15.10
2011,05,14,15,56,15.10
2011,05,14,15,57,15.20
2011,05,14,15,58,15.20
2011,05,14,15,59,15.20
2011,05,14,16,00,15.20
2011,05,14,16,01,15.30
2011,05,14,16,02,15.30
2011,05,14,16,03,15.30
2011,05,14,16,04,15.30
2011,05,14,16,05,15.30
2011,05,14,16,06,15.30
2011,05,14,16,07,15.30
2011,05,14,16,08,15.30
2011,05,14,16,09,15.30
2011,05,14,16,10,15.40
2011,05,14,16,11,15.30
2011,05,14,16,12,15.30
2011,05,14,16,13,15.30
2011,05,14,16,14,15.30
2011,05,14,16,15,15.30
2011,05,14,16,16,15.40
2011,05,14,16,17,15.40
2011,05,14,16,18,15.40
2011,05,14,16,19,15.50
2011,05,14,16,20,15.50
2011,05,14,16,21,15.50
2011,05,14,16,22,15.60
2011,05,14,16,23,15.60
2011,05,14,16,24,15.60
2011,05,14,16,25,15.70
2011,05,14,16,26,15.70
2011,05,14,16,27,15.60
2011,05,14,16,28,15.70
2011,05,14,16,29,15.70
2011,05,14,16,30,15.80
2011,05,14,16,31,15.80
2011,05,14,16,32,15.90
2011,05,14,16,33,15.90
2011,05,14,16,34,16.00
2011,05,14,16,35,16.00
2011,05,14,16,36,16.00
2011,05,14,16,37,16.00
2011,05,14,16,38,16.00
2011,05,14,16,39,16.00
2011,05,14,16,40,16.00
2011,05,14,16,41,15.90
2011,05,14,16,42,15.90
2011,05,14,16,43,15.90
2011,05,14,16,44,15.90
2011,05,14,16,45,15.90
2011,05,14,16,46,15.90
2011,05,14,16,47,15.90
2011,05,14,16,48,15.90
2011,05,14,16,49,15.90
2011,05,14,16,50,16.00
2011,05,14,16,51,16.00
2011,05,14,16,52,16.10
2011,05,14,16,53,16.10
2011,05,14,16,54,16.10
2011,05,14,16,55,16.10
2011,05,14,16,56,16.10
2011,05,14,16,57,16.20
2011,05,14,16,58,16.20
2011,05,14,16,59,16.30
2011,05,14,17,00,16.30
2011,05,14,17,01,16.40
2011,05,14,17,02,16.50
2011,05,14,17,03,16.50
2011,05,14,17,04,16.50
2011,05,14,17,05,16.50
2011,05,14,17,06,16.50
2011,05,14,17,07,16.50
2011,05,14,17,08,16.40
2011,05,14,17,09,16.40
2011,05,14,17,10,16.40
2011,05,14,17,11,16.30
2011,05,14,17,12,16.30
2011,05,14,17,13,16.30
2011,05,14,17,14,16.30
2011,05,14,17,15,16.30
2011,05,14,17,16,16.30
2011,05,14,17,17,16.30
2011,05,14,17,18,16.40
2011,05,14,17,19,16.40
2011,05,14,17,20,16.40
2011,05,14,17,21,16.40
2011,05,14,17,22,16.40
2011,05,14,17,23,16.40
2011,05,14,17,24,16.40
2011,05,14,17,25,16.40
2011,05,14,17,26,16.40
2011,05,14,17,27,16.30
2011,05,14,17,28,16.30
2011,05,14,17,29,16.30
2011,05,14,17,30,16.30
2011,05,14,17,31,16.30
2011,05,14,17,32,16.40
2011,05,14,17,33,16.40
2011,05,14,17,34,16.40
2011,05,14,17,35,16.40
2011,05,14,17,36,16.40
2011,05,14,17,37,16.40
2011,05,14,17,38,16.40
2011,05,14,17,39,16.30
2011,05,14,17,40,16.40
2011,05,14,17,41,16.40
2011,05,14,17,42,16.40
2011,05,14,17,43,16.40
2011,05,14,17,44,16.40
2011,05,14,17,45,16.40
2011,05,14,17,46,16.40
2011,05,14,17,47,16.40
2011,05,14,17,48,16.40
2011,05,14,17,49,16.40